"Pseudo-MPEC" for C0J67X5

Created 2023 Sep 20 2:22:04 UT using Find_Orb

Click here for an explanation of pseudo-MPECs

 
 Astrometry: 
     C0J67X5* C2023 09 18.29554823 06 49.943-00 18 40.61   ~9I87 21.05GVNEOCPV00
     C0J67X5  C2023 09 18.30230323 06 47.056-00 17 38.04   ~9I87 21.49GVNEOCPV00
     C0J67X5  C2023 09 18.30903123 06 44.150-00 16 35.54   ~9I87 21.15GVNEOCPV00
     C0J67X5  C2023 09 18.31576123 06 41.303-00 15 33.26   ~9I87 21.19GVNEOCPV00
     C0J67X5 KC2023 09 18.38535723 06 11.783-00 04 50.20   ~9I9q 21.20GVNEOCPI52
     C0J67X5 KC2023 09 18.38914823 06 10.199-00 04 15.31   ~9I9q 20.97GVNEOCPI52
     C0J67X5 KC2023 09 18.39209023 06 08.968-00 03 47.74   ~9I9q 21.56GVNEOCPI52
     C0J67X5 KC2023 09 18.39503723 06 07.744-00 03 20.41   ~9I9q 21.14GVNEOCPI52
     C0J67X5 KC2023 09 19.19682123 00 53.633+01 59 47.04   ~9J5M 20.67GVNEOCPI52
     C0J67X5 KC2023 09 19.19999123 00 52.265+02 00 16.52   ~9J5M 20.89GVNEOCPI52
     C0J67X5 KC2023 09 19.20315523 00 50.958+02 00 45.40   ~9J5M 21.27GVNEOCPI52
     C0J67X5 KC2023 09 19.20633323 00 49.644+02 01 14.56   ~9J5M 21.06GVNEOCPI52
     C0J67X5 1C2023 09 19.85863 22 56 32.33 +03 40 12.0    ~9JL7 21.1 VXNEOCP033
     C0J67X5 1C2023 09 19.86013 22 56 31.71 +03 40 26.0    ~9JL7 21.1 VXNEOCP033
     C0J67X5 1C2023 09 19.86164 22 56 31.09 +03 40 39.0    ~9JL7 20.4 VXNEOCP033
     C0J67X5 1C2023 09 19.86314 22 56 30.46 +03 40 52.7    ~9JL7 21.0 VXNEOCP033

Station data:
(033) Karl Schwarzschild Observatory, Tautenburg  (N50.980137 E11.711240)
   Germany.  Observer B. Stecklum. 1.34-m f/3 Schmidt + CCD.
(I52) Steward Observatory, Mt. Lemmon Station  (N32.442544 W110.788920)
   US/Arizona.  Observers T. A. Pruyne, B. M. Africano, E. J. Christensen, G.
   A. Farneth, D. C. Fuls, A. R. Gibbs, A. D. Grauer, H. Gröller, J. A.
   Johnson, R. A. Kowalski, S. M. Larson, G. J. Leonard, D. Rankin, R. L.
   Seaman, F. C. Shelly, K. W. Wierzchoś. 1.0-m prime focus + CCD.
(V00) Kitt Peak-Bok  (N31.963125 W111.600190)  US/Arizona.  Observers T. A.
   Pruyne, B. M. Africano, E. J. Christensen, G. A. Farneth, D. C. Fuls, A.
   R. Gibbs, A. D. Grauer, H. Gröller, J. A. Johnson, R. A. Kowalski, S. M.
   Larson, G. J. Leonard, D. Rankin, R. L. Seaman, F. C. Shelly, K. W.
   Wierzchoś. 2.25-m reflector + 4x4K mosaic CCD.

Orbital elements:  C0J67X5
   Perihelion 2023 Oct 13.78847 +/- 0.29 TT = 18:55:24 (JD 2460231.28847)
Epoch 2023 Sep 19.0 TT = JDT 2460206.5   Earth MOID: 0.1177      AutoNEOCP
M 343.22466907 +/- 0.26             (J2000 ecliptic)
n   0.67673920 +/- 0.00317          Peri.   24.11699 +/- 0.26
a   1.28485807 +/- 0.00402          Node   352.70502 +/- 0.0032
e   0.1343437 +/- 0.002             Incl.   21.32454 +/- 0.14
P   1.46/531.95d           H 25.03  G  0.15   U  8.9
q 1.11224545 +/- 0.000922    Q 1.45747068 +/- 0.00713
From 16 observations 2023 Sept. 18-19 (37.6 hr); mean residual 0".22
Residuals in arcseconds: 
230918 V00  .40+  .21-    230918 I52  .06-  .22+    230919 033  .17+  .11+    
230918 V00  .28+  .14-    230918 I52  .12+  .30+    230919 033  .09+  .48+    
230918 V00  .32-  .11+    230919 I52  .11+  .30-    230919 033  .08+  .25-    
230918 V00  .04-  .13+    230919 I52  .48-  .07+    230919 033  .15-  .18-    
230918 I52  .23-  .01+    230919 I52  .18-  .10-    
230918 I52  .11-  .15-    230919 I52  .11+  .11-    

Ephemerides (geocentric):
Date (UTC) HH   RA             Dec           delta  r     elong  mag " sig PA
---- --------  ------------   ------------  ------ ------ -----  --- --------
2023 09 20 02  22 55 03.077   +04 15 01.68  .11992 1.1211 165.8 21.4 .426 149
2023 09 20 03  22 54 46.807   +04 21 18.22  .11996 1.1211 165.7 21.4 .430 149
2023 09 20 04  22 54 30.549   +04 27 34.45  .12001 1.1211 165.5 21.4 .433 148
2023 09 20 05  22 54 14.301   +04 33 50.37  .12005 1.1211 165.4 21.4 .437 148
2023 09 20 06  22 53 58.065   +04 40 05.96  .12009 1.1210 165.3 21.4 .440 147
2023 09 20 07  22 53 41.840   +04 46 21.22  .12014 1.1210 165.1 21.5 .443 147
2023 09 20 08  22 53 25.627   +04 52 36.15  .12018 1.1210 165.0 21.5 .446 146
2023 09 20 09  22 53 09.426   +04 58 50.75  .12023 1.1209 164.9 21.5 .449 146
2023 09 20 10  22 52 53.236   +05 05 05.00  .12028 1.1209 164.7 21.5 .452 145
2023 09 20 11  22 52 37.058   +05 11 18.91  .12033 1.1209 164.6 21.5 .455 145
2023 09 20 12  22 52 20.891   +05 17 32.46  .12038 1.1208 164.5 21.5 .458 144
2023 09 20 13  22 52 04.737   +05 23 45.67  .12042 1.1208 164.3 21.5 .460 144
2023 09 20 14  22 51 48.595   +05 29 58.51  .12047 1.1208 164.2 21.5 .463 144
2023 09 20 15  22 51 32.465   +05 36 10.99  .12052 1.1208 164.1 21.5 .465 143
2023 09 20 16  22 51 16.347   +05 42 23.10  .12058 1.1207 163.9 21.5 .467 143
2023 09 20 17  22 51 00.242   +05 48 34.84  .12063 1.1207 163.8 21.5 .469 143
2023 09 20 18  22 50 44.149   +05 54 46.21  .12068 1.1207 163.7 21.5 .471 142
2023 09 20 19  22 50 28.068   +06 00 57.19  .12073 1.1206 163.6 21.5 .472 142
2023 09 20 20  22 50 12.000   +06 07 07.79  .12079 1.1206 163.4 21.5 .474 142
2023 09 20 21  22 49 55.945   +06 13 18.00  .12084 1.1206 163.3 21.5 .475 141
2023 09 20 22  22 49 39.902   +06 19 27.81  .12090 1.1205 163.2 21.5 .476 141
2023 09 20 23  22 49 23.873   +06 25 37.23  .12095 1.1205 163.0 21.5 .477 141
2023 09 21 00  22 49 07.856   +06 31 46.25  .12101 1.1205 162.9 21.5 .478 140
2023 09 21 01  22 48 51.853   +06 37 54.86  .12106 1.1205 162.8 21.5 .479 140
2023 09 21 02  22 48 35.862   +06 44 03.06  .12112 1.1204 162.6 21.5 .479 140
2023 09 21 03  22 48 19.885   +06 50 10.85  .12118 1.1204 162.5 21.6 .479 140
2023 09 21 04  22 48 03.921   +06 56 18.21  .12124 1.1204 162.4 21.6 .479 139
2023 09 21 05  22 47 47.970   +07 02 25.16  .12130 1.1203 162.3 21.6 .479 139
2023 09 21 06  22 47 32.033   +07 08 31.68  .12136 1.1203 162.1 21.6 .479 139
2023 09 21 07  22 47 16.110   +07 14 37.77  .12142 1.1203 162.0 21.6 .479 139
2023 09 21 08  22 47 00.200   +07 20 43.43  .12148 1.1202 161.9 21.6 .478 139
2023 09 21 09  22 46 44.304   +07 26 48.65  .12154 1.1202 161.7 21.6 .477 138
2023 09 21 10  22 46 28.421   +07 32 53.43  .12161 1.1202 161.6 21.6 .476 138
2023 09 21 11  22 46 12.553   +07 38 57.76  .12167 1.1202 161.5 21.6 .475 138
2023 09 21 12  22 45 56.698   +07 45 01.64  .12173 1.1201 161.3 21.6 .474 138
2023 09 21 13  22 45 40.858   +07 51 05.07  .12180 1.1201 161.2 21.6 .472 138
2023 09 21 14  22 45 25.031   +07 57 08.05  .12186 1.1201 161.1 21.6 .471 137
2023 09 21 15  22 45 09.219   +08 03 10.56  .12193 1.1200 161.0 21.6 .469 137
2023 09 21 16  22 44 53.421   +08 09 12.61  .12200 1.1200 160.8 21.6 .467 137
2023 09 21 17  22 44 37.638   +08 15 14.19  .12206 1.1200 160.7 21.6 .465 137
2023 09 21 18  22 44 21.869   +08 21 15.30  .12213 1.1200 160.6 21.6 .462 137
2023 09 21 19  22 44 06.114   +08 27 15.93  .12220 1.1199 160.4 21.6 .459 137
2023 09 21 20  22 43 50.375   +08 33 16.09  .12227 1.1199 160.3 21.6 .457 136
2023 09 21 21  22 43 34.649   +08 39 15.76  .12234 1.1199 160.2 21.6 .453 136
2023 09 21 22  22 43 18.939   +08 45 14.95  .12241 1.1198 160.1 21.6 .450 136
2023 09 21 23  22 43 03.244   +08 51 13.65  .12248 1.1198 159.9 21.7 .447 136
2023 09 22 00  22 42 47.563   +08 57 11.86  .12255 1.1198 159.8 21.7 .443 136
2023 09 22 01  22 42 31.897   +09 03 09.57  .12262 1.1198 159.7 21.7 .439 136